Regional Weather Roundup
Issued by NWS Nashville, TN

Home | Current Version | Previous Version | Text Only | Print | Product List | Glossary On
Versions: 1 2 3 4 5 6 7 8 9 10 11 12 13 14 15 16 17 18 19 20 21 22 23 24 25 26 27 28
000
ASUS44 KOHX 191710
RWROHX
MIDDLE TENNESSEE HOURLY WEATHER ROUNDUP
NATIONAL WEATHER SERVICE NASHVILLE TN
1200 PM CDT SAT AUG 19 2017

NOTE: "FAIR" INDICATES FEW OR NO CLOUDS BELOW 12,000 FEET WITH
NO SIGNIFICANT WEATHER AND/OR OBSTRUCTIONS TO VISIBILITY.

* THESE REPORTS ARE NOT UNDER NWS QUALITY CONTROL AND MAY NOT
  REPORT WEATHER SUCH AS PRECIPITATION AND FOG.


TNZ005>011-023>034-057-059-062>066-078-080-191800
...NORTHERN MIDDLE TENNESSEE...

CITY           SKY/WX    TMP DP  RH WIND       PRES   REMARKS
CLARKSVILLE    SUNNY     86  71  60 S6        29.99S HX  91
CROSSVILLE     SUNNY     80  62  54 CALM      30.09R
GALLATIN       SUNNY     86  66  51 S6        30.03F
DICKSON        SUNNY     85  70  60 SW6       30.01S
LEBANON        SUNNY     85  65  51 CALM      30.00F
NASHVILLE      PTSUNNY   86  67  52 CALM      30.01F
PORTLAND       SUNNY     84  68  58 N3        30.01F
SMYRNA         MOSUNNY   85  68  56 W7        30.02S
SPARTA         MOSUNNY   82  68  61 VRB3      30.04S
SPRINGFIELD    SUNNY     84  70  61 CALM      29.99F
WEST NASHVILLE SUNNY     86  70  58 NW7       29.99S HX  90
$$
TNZ056-058-060-061-075>077-079-093>097-191800
...SOUTHERN MIDDLE TENNESSEE...

CITY           SKY/WX    TMP DP  RH WIND       PRES   REMARKS
COLUMBIA       MOSUNNY   86  70  58 VRB3      30.00S HX  90
FAYETTEVILLE   SUNNY     82  70  65 VRB5      30.03F
MCMINNVILLE    SUNNY     84  70  61 W5        30.05R
MURFREESBORO   SUNNY     86  66  50 NW3       30.01S
PULASKI        SUNNY     86  72  62 CALM      30.01F HX  92
SHELBYVILLE    PTSUNNY   82  68  61 CALM      30.03S
TULLAHOMA      SUNNY     84  66  54 VRB3      30.05S
WINCHESTER     SUNNY     84  68  58 CALM      30.04F
$$


...KEY TO REMARKS...
VSB - VISIBILITY IN MILES
WCI - WIND CHILL INDEX
HX  - HEAT INDEX





USA.gov is the U.S. government's official web portal to all federal, state and local government web resources and services.